Location: Brissac
(47.3500°N, 0.4500°W)
Time: 15:48:48
(UTC+02:00)

ISS - Pass Details

Date: 18 May 2021
Orbit: 419 x 422 km, 51.6° (Epoch: 25 June)

Event Time Altitude Azimuth Distance (km) Brightness Sun altitude
Rises 22:42:10 0° 247° (WSW) 2,362 0.4 -9.8°
Reaches altitude 10° 22:44:16 10° 248° (WSW) 1,501 -0.6 -10.0°
Maximum altitude 22:47:38 82° 334° (NNW) 430 -3.7 -10.4°
Drops below altitude 10° 22:51:02 10° 65° (ENE) 1,509 -1.1 -10.8°
Enters shadow 22:55:43 -8° 67° (ENE) 3,438 0.7 -11.4°
